Location: Melbourne
(37.8170°S, 144.9670°E)
Time: 18:10:27
(UTC+11:00)

ISS - All Passes

Search period start: 01 February 2015 00:00
Search period end: 11 February 2015 00:00
Orbit: 400 x 408 km, 51.6° (Epoch: 01 February)

Date Brightness Start Highest point End Pass type
(mag) Time Alt. Az. Time Alt. Az. Time Alt. Az.
01 Feb - 10:04:08 10° NW 10:07:28 84° SW 10:10:48 10° SE daylight
01 Feb - 11:42:21 10° WSW 11:44:23 15° SSW 11:46:23 10° SSE daylight
01 Feb - 14:58:18 10° S 14:59:47 12° SSE 15:01:19 10° SE daylight
01 Feb - 16:33:37 10° SW 16:36:53 56° SE 16:40:08 10° ENE daylight
01 Feb - 18:11:23 10° W 18:13:04 13° NW 18:14:37 10° NNW daylight
02 Feb - 09:12:00 10° NNW 09:15:12 46° NE 09:18:24 10° ESE daylight
02 Feb - 10:49:10 10° W 10:51:50 22° SSW 10:54:29 10° SSE daylight
02 Feb - 15:41:29 10° SSW 15:44:28 30° SSE 15:47:28 10° E daylight
02 Feb - 17:18:04 10° WSW 17:20:54 26° NW 17:23:40 10° N daylight
03 Feb - 08:20:20 10° N 08:22:58 22° NE 08:25:40 10° ESE daylight
03 Feb - 09:56:15 10° W 09:59:20 34° SSW 10:02:26 10° SE daylight
03 Feb - 11:36:10 10° SSW 11:36:37 10° SSW 11:37:02 10° S daylight
03 Feb - 14:49:26 10° SSW 14:51:57 20° SSE 14:54:29 10° ESE daylight
03 Feb - 16:25:24 10° WSW 16:28:40 54° NW 16:31:52 10° NE daylight
04 Feb - 07:29:44 10° NNE 07:30:46 11° NE 07:31:55 10° ENE daylight
04 Feb - 09:03:35 10° WNW 09:06:53 66° SW 09:10:13 10° SE daylight
04 Feb - 10:42:09 10° SW 10:43:55 13° SSW 10:45:38 10° S daylight
04 Feb - 13:57:31 10° SSW 13:59:19 14° SSE 14:01:09 10° SE daylight
04 Feb - 15:33:00 10° SW 15:36:19 71° SE 15:39:36 10° NE daylight
04 Feb - 17:11:59 10° WNW 17:12:24 10° NW 17:12:39 10° NW daylight
05 Feb - 08:11:14 10° NW 08:14:30 60° NE 08:17:49 10° ESE daylight
05 Feb - 09:48:46 10° WSW 09:51:15 19° SSW 09:53:43 10° SSE daylight
05 Feb - 13:05:57 10° S 13:06:35 10° SSE 13:07:17 10° SSE daylight
05 Feb - 14:40:44 10° SW 14:43:51 37° SSE 14:46:58 10° ENE daylight
05 Feb - 16:17:37 10° W 16:20:11 20° NW 16:22:40 10° N daylight
06 Feb - 07:19:18 10° NNW 07:22:11 28° NE 07:25:07 10° ESE daylight
06 Feb - 08:55:40 10° W 08:58:38 29° SSW 09:01:37 10° SSE daylight
06 Feb - 13:48:34 10° SSW 13:51:16 22° SSE 13:53:59 10° E daylight
06 Feb - 15:24:43 10° WSW 15:27:53 41° NW 15:30:59 10° NNE daylight
07 Feb - 06:28:04 10° NNE 06:29:53 14° NE 06:31:50 10° E daylight
07 Feb - 08:02:50 10° WNW 08:06:05 52° SW 08:09:22 10° SE daylight
07 Feb - 09:41:45 10° SW 09:43:12 12° SSW 09:44:37 10° S daylight
07 Feb - 12:56:31 10° SSW 12:58:35 15° SSE 13:00:40 10° ESE daylight
07 Feb - 14:32:09 10° SW 14:35:28 90° WSW 14:38:46 10° NE daylight
08 Feb - 07:10:17 10° NW 07:13:35 77° NE 07:16:56 10° SE daylight
08 Feb - 08:48:09 10° WSW 08:50:26 17° SSW 08:52:40 10° SSE daylight
08 Feb - 12:04:39 10° S 12:05:47 11° SSE 12:06:58 10° SE daylight
08 Feb - 13:39:45 10° SW 13:42:58 45° SE 13:46:09 10° ENE daylight
08 Feb - 15:17:00 10° W 15:19:12 16° NW 15:21:18 10° N daylight
09 Feb - 06:18:06 10° NNW 06:21:10 36° NE 06:24:16 10° ESE daylight
09 Feb - 07:54:52 10° W 07:57:42 25° SSW 08:00:32 10° SSE daylight
09 Feb - 12:47:28 10° SSW 12:50:19 26° SSE 12:53:11 10° E daylight
09 Feb - 14:23:48 10° WSW 14:26:50 33° NW 14:29:48 10° NNE daylight
10 Feb - 05:26:29 10° N 05:28:46 18° NE 05:31:09 10° E visible
10 Feb - 07:01:51 10° WNW 07:05:02 42° SW 07:08:14 10° SE daylight
10 Feb - 08:41:09 10° SW 08:42:14 11° SSW 08:43:16 10° S daylight
10 Feb - 11:55:16 10° SSW 11:57:34 17° SSE 11:59:54 10° ESE daylight
10 Feb - 13:31:03 10° SW 13:34:22 71° NW 13:37:39 10° NE daylight
